Location: Bay Harbour
(38.2612°N, 75.2555°W)
Time: 15:57:30
(UTC+00:00)

ARGOS - Pass Details

Date: 29 October 2020
Orbit: 820 x 835 km, 98.4° (Epoch: 22 November)

Event Time Altitude Azimuth Distance (km) Brightness Sun altitude
Exits shadow 23:21:55 24° 76° (ENE) 1,668 4.1 -15.8°
Maximum altitude 23:22:30 24° 66° (ENE) 1,650 4.2 -15.9°
Drops below altitude 10° 23:26:47 10° 14° (NNE) 2,453 5.4 -16.7°
Sets 23:29:32 0° 1° (N) 3,391 6.3 -17.2°
